• In Romania
  • List of Countries
  • For 7 days
  • Water Temperature
  • Satellite Maps
  • Weather Map
  • Weather Widgets
  • user-avatar
    Login

    Hourly Weather Mielecin

    Today, 22 October, Monday

    Time Temperature Precipitation Wind Pressure Humidity
    00:00 +7°C° 0 mm 1 mps 753 mmHg 80%
    01:00 +6°C° 0 mm 1 mps 753 mmHg 81%
    02:00 +6°C° 0 mm 1 mps 753 mmHg 82%
    03:00 +6°C° 0 mm 1 mps 753 mmHg 82%
    04:00 +6°C° 0 mm 1 mps 753 mmHg 83%
    05:00 +6°C° 0 mm 1 mps 753 mmHg 83%
    06:00 +6°C° 0 mm 1 mps 753 mmHg 83%
    07:00 +6°C° 0 mm 1 mps 753 mmHg 81%
    08:00 +8°C° 0 mm 1 mps 752 mmHg 73%
    09:00 +9°C° 0 mm 2 mps 752 mmHg 66%
    10:00 +12°C° 0 mm 2 mps 752 mmHg 58%
    11:00 +13°C° 0 mm 2 mps 752 mmHg 54%
    12:00 +13°C° 0 mm 3 mps 751 mmHg 51%
    13:00 +14°C° 0 mm 3 mps 751 mmHg 48%
    14:00 +13°C° 0 mm 3 mps 751 mmHg 52%
    15:00 +13°C° 0 mm 3 mps 751 mmHg 56%
    16:00 +12°C° 0 mm 3 mps 751 mmHg 61%
    17:00 +11°C° 0 mm 3 mps 751 mmHg 68%
    18:00 +10°C° 0 mm 4 mps 752 mmHg 75%
    19:00 +8°C° 0 mm 4 mps 752 mmHg 82%
    20:00 +7°C° 0 mm 4 mps 752 mmHg 84%
    21:00 +7°C° 0 mm 4 mps 752 mmHg 86%
    22:00 +7°C° 0 mm 3 mps 753 mmHg 88%
    23:00 +5°C° 0 mm 3 mps 753 mmHg 88%

    Tomorrow, 23 October, Tuesday

    Time Temperature Precipitation Wind Pressure Humidity
    00:00 +5°C° 0 mm 3 mps 752 mmHg 89%
    01:00 +4°C° 0 mm 3 mps 752 mmHg 89%
    02:00 +4°C° 0 mm 3 mps 752 mmHg 87%
    03:00 +4°C° 0 mm 3 mps 751 mmHg 85%
    04:00 +4°C° 0 mm 3 mps 751 mmHg 83%
    05:00 +4°C° 0 mm 4 mps 750 mmHg 81%
    06:00 +4°C° 0 mm 4 mps 749 mmHg 80%
    07:00 +5°C° 0 mm 5 mps 749 mmHg 78%
    08:00 +5°C° 0.1 mm 6 mps 748 mmHg 73%
    09:00 +6°C° 0.1 mm 7 mps 747 mmHg 67%
    10:00 +7°C° 0.1 mm 8 mps 746 mmHg 61%
    11:00 +7°C° 0.7 mm 9 mps 745 mmHg 65%
    12:00 +7°C° 0.7 mm 9 mps 744 mmHg 68%
    13:00 +7°C° 0.7 mm 9 mps 743 mmHg 71%
    14:00 +7°C° 0.2 mm 10 mps 743 mmHg 73%
    15:00 +7°C° 0.2 mm 10 mps 742 mmHg 74%
    16:00 +8°C° 0.2 mm 10 mps 741 mmHg 76%
    17:00 +8°C° 0.3 mm 10 mps 741 mmHg 77%
    18:00 +9°C° 0.3 mm 10 mps 740 mmHg 78%
    19:00 +9°C° 0.3 mm 10 mps 739 mmHg 79%
    20:00 +9°C° 0.5 mm 10 mps 739 mmHg 79%
    21:00 +9°C° 0.5 mm 11 mps 738 mmHg 79%
    22:00 +11°C° 0.5 mm 11 mps 737 mmHg 80%
    23:00 +11°C° 0.7 mm 11 mps 737 mmHg 80%

    Day after tomorrow, 24 October, Wednesday

    Time Temperature Precipitation Wind Pressure Humidity
    00:00 +11°C° 0.7 mm 11 mps 736 mmHg 80%
    01:00 +11°C° 0.7 mm 11 mps 735 mmHg 80%
    02:00 +11°C° 1.2 mm 11 mps 735 mmHg 79%
    03:00 +9°C° 1.2 mm 11 mps 735 mmHg 78%
    04:00 +9°C° 1.2 mm 11 mps 735 mmHg 76%
    05:00 +7°C° 0.2 mm 11 mps 736 mmHg 74%
    06:00 +6°C° 0.2 mm 10 mps 737 mmHg 71%
    07:00 +5°C° 0.2 mm 9 mps 738 mmHg 68%
    08:00 +5°C° 0.1 mm 9 mps 738 mmHg 66%
    09:00 +5°C° 0.1 mm 10 mps 739 mmHg 64%
    10:00 +6°C° 0.1 mm 10 mps 739 mmHg 62%
    11:00 +6°C° 0.1 mm 10 mps 740 mmHg 59%
    12:00 +6°C° 0.1 mm 10 mps 740 mmHg 56%
    13:00 +7°C° 0.1 mm 10 mps 741 mmHg 53%
    14:00 +6°C° 0 mm 9 mps 742 mmHg 52%
    15:00 +6°C° 0 mm 8 mps 742 mmHg 51%
    16:00 +6°C° 0 mm 7 mps 743 mmHg 50%
    17:00 +5°C° 0 mm 7 mps 743 mmHg 54%
    18:00 +5°C° 0 mm 6 mps 744 mmHg 57%
    19:00 +4°C° 0 mm 6 mps 744 mmHg 60%
    20:00 +4°C° 0 mm 6 mps 745 mmHg 62%
    21:00 +3°C° 0 mm 5 mps 745 mmHg 64%
    22:00 +3°C° 0 mm 5 mps 745 mmHg 65%
    23:00 +3°C° 0 mm 5 mps 745 mmHg 69%

    25 October, Thursday

    Time Temperature Precipitation Wind Pressure Humidity
    00:00 +2°C° 0 mm 5 mps 745 mmHg 72%
    01:00 +2°C° 0 mm 5 mps 745 mmHg 75%
    02:00 +2°C° 0 mm 5 mps 745 mmHg 77%
    03:00 +3°C° 0 mm 5 mps 744 mmHg 78%
    04:00 +3°C° 0 mm 5 mps 743 mmHg 80%
    05:00 +5°C° 0.4 mm 5 mps 743 mmHg 82%
    06:00 +5°C° 0.4 mm 6 mps 742 mmHg 85%
    07:00 +8°C° 0.4 mm 6 mps 741 mmHg 87%
    08:00 +9°C° 0.1 mm 7 mps 741 mmHg 84%
    09:00 +9°C° 0.1 mm 8 mps 740 mmHg 81%
    10:00 +10°C° 0.1 mm 9 mps 740 mmHg 79%
    11:00 +10°C° 0.1 mm 9 mps 740 mmHg 77%
    12:00 +10°C° 0.1 mm 9 mps 740 mmHg 75%
    13:00 +11°C° 0.1 mm 9 mps 740 mmHg 74%
    14:00 +10°C° 0.1 mm 9 mps 740 mmHg 75%
    15:00 +10°C° 0.1 mm 8 mps 740 mmHg 76%
    16:00 +10°C° 0.1 mm 8 mps 740 mmHg 77%
    17:00 +9°C° 0.1 mm 7 mps 740 mmHg 78%
    18:00 +9°C° 0.1 mm 6 mps 741 mmHg 78%
    19:00 +9°C° 0.1 mm 5 mps 741 mmHg 79%
    20:00 +8°C° 0.1 mm 5 mps 741 mmHg 79%
    21:00 +8°C° 0.1 mm 5 mps 742 mmHg 80%
    22:00 +7°C° 0.1 mm 4 mps 742 mmHg 80%
    23:00 +7°C° 0 mm 4 mps 742 mmHg 82%

    26 October, Friday

    Time Temperature Precipitation Wind Pressure Humidity
    00:00 +6°C° 0 mm 4 mps 742 mmHg 83%
    01:00 +7°C° 0 mm 3 mps 742 mmHg 85%
    02:00 +7°C° 0 mm 3 mps 742 mmHg 86%
    03:00 +7°C° 0 mm 3 mps 742 mmHg 87%
    04:00 +7°C° 0 mm 3 mps 741 mmHg 88%
    05:00 +7°C° 0 mm 2 mps 741 mmHg 90%
    06:00 +7°C° 0 mm 2 mps 741 mmHg 91%
    07:00 +7°C° 0 mm 2 mps 741 mmHg 93%
    08:00 +9°C° 0 mm 2 mps 741 mmHg 87%
    09:00 +10°C° 0 mm 3 mps 741 mmHg 81%
    10:00 +11°C° 0 mm 3 mps 741 mmHg 75%
    11:00 +12°C° 0 mm 3 mps 740 mmHg 72%
    12:00 +13°C° 0 mm 4 mps 740 mmHg 68%
    13:00 +14°C° 0 mm 4 mps 739 mmHg 65%
    14:00 +13°C° 0 mm 4 mps 739 mmHg 66%
    15:00 +13°C° 0 mm 3 mps 738 mmHg 68%
    16:00 +12°C° 0 mm 3 mps 737 mmHg 70%
    17:00 +12°C° 0 mm 3 mps 737 mmHg 72%
    18:00 +11°C° 0 mm 3 mps 737 mmHg 74%
    19:00 +10°C° 0 mm 3 mps 736 mmHg 76%
    20:00 +10°C° 0 mm 4 mps 736 mmHg 76%
    21:00 +10°C° 0 mm 4 mps 736 mmHg 76%
    22:00 +10°C° 0 mm 4 mps 736 mmHg 76%
    23:00 +10°C° 0 mm 3 mps 735 mmHg 78%

    27 October, Saturday

    Time Temperature Precipitation Wind Pressure Humidity
    00:00 +10°C° 0 mm 3 mps 735 mmHg 80%
    01:00 +10°C° 0 mm 3 mps 735 mmHg 82%
    02:00 +9°C° 0 mm 3 mps 735 mmHg 83%
    03:00 +9°C° 0 mm 3 mps 735 mmHg 84%
    04:00 +8°C° 0 mm 3 mps 735 mmHg 85%
    05:00 +8°C° 0.1 mm 3 mps 735 mmHg 84%
    06:00 +8°C° 0.1 mm 3 mps 735 mmHg 83%
    07:00 +8°C° 0.1 mm 3 mps 735 mmHg 83%
    08:00 +8°C° 0.2 mm 3 mps 736 mmHg 78%
    09:00 +8°C° 0.2 mm 3 mps 736 mmHg 73%
    10:00 +8°C° 0.2 mm 4 mps 736 mmHg 68%
    11:00 +8°C° 0.1 mm 4 mps 736 mmHg 65%
    12:00 +8°C° 0.1 mm 4 mps 736 mmHg 61%
    13:00 +8°C° 0.1 mm 4 mps 736 mmHg 58%
    14:00 +8°C° 0 mm 4 mps 736 mmHg 59%
    15:00 +8°C° 0 mm 3 mps 736 mmHg 61%
    16:00 +8°C° 0 mm 2 mps 736 mmHg 62%
    17:00 +8°C° 0 mm 2 mps 736 mmHg 65%
    18:00 +7°C° 0 mm 2 mps 736 mmHg 67%
    19:00 +7°C° 0 mm 2 mps 736 mmHg 69%
    20:00 +6°C° 0 mm 2 mps 736 mmHg 70%
    21:00 +6°C° 0 mm 2 mps 736 mmHg 72%
    22:00 +6°C° 0 mm 2 mps 736 mmHg 73%
    23:00 +6°C° 0.1 mm 2 mps 735 mmHg 74%

    28 October, Sunday

    Time Temperature Precipitation Wind Pressure Humidity
    00:00 +6°C° 0.1 mm 2 mps 735 mmHg 76%
    01:00 +5°C° 0.1 mm 2 mps 735 mmHg 77%
    02:00 +5°C° 0.1 mm 2 mps 735 mmHg 78%
    03:00 +6°C° 0.1 mm 1 mps 735 mmHg 79%
    04:00 +6°C° 0.1 mm 1 mps 734 mmHg 79%
    05:00 +6°C° 0.1 mm 1 mps 735 mmHg 79%
    06:00 +6°C° 0.1 mm 1 mps 735 mmHg 79%
    07:00 +5°C° 0.1 mm 1 mps 735 mmHg 79%
    08:00 +5°C° 0.1 mm 2 mps 735 mmHg 75%
    09:00 +5°C° 0.1 mm 2 mps 736 mmHg 71%
    10:00 +5°C° 0.1 mm 3 mps 736 mmHg 67%
    11:00 +5°C° 0 mm 3 mps 737 mmHg 63%
    12:00 +7°C° 0 mm 3 mps 737 mmHg 59%
    13:00 +8°C° 0 mm 3 mps 738 mmHg 56%
    14:00 +7°C° 0 mm 3 mps 738 mmHg 58%
    15:00 +7°C° 0 mm 2 mps 739 mmHg 60%
    16:00 +6°C° 0 mm 2 mps 739 mmHg 62%
    17:00 +6°C° 0 mm 2 mps 739 mmHg 67%
    18:00 +5°C° 0 mm 2 mps 740 mmHg 72%
    19:00 +4°C° 0 mm 2 mps 740 mmHg 77%
    20:00 +3°C° 0 mm 2 mps 741 mmHg 79%
    21:00 +3°C° 0 mm 2 mps 741 mmHg 80%
    22:00 +3°C° 0 mm 2 mps 742 mmHg 82%
    23:00 +3°C° 0 mm 2 mps 742 mmHg 83%
    Show more